Flag for U.S.A. Weather past 2 weeks in Lansing, Michigan, U.S.A.

Now
17 °F

Scattered clouds.


Feels Like: 5 °F
Forecast: -4 / 12 °F
Wind: 10 mph from West

Location: Capital City Airport

Current Time: Feb 27, 2015 at 6:42:58 PM

Latest Report: Feb 27, 2015 at 5:53 PM


Visibility: 10 mi

Pressure: 30.61 "Hg

Humidity: 54%

Dew point: 3 °F

Location of LansingLocation

Historic Weather in Lansing — Graph

°F

Lansing temperature yesterday

Maximum temperature yesterday: 12 °F (at 12:53 AM)
Minimum temperature yesterday: 1 °F (at 9:53 PM)
Average temperature yesterday: 7 °F

Past Weeks' High & Low Weather Summary

 TemperatureHumidityPressure
High27 °F (Feb 21, 2:53 PM)89% (Feb 14, 12:53 AM)30.71 "Hg (Feb 14, 12:53 AM)
Low-13 °F (Feb 20, 1:53 AM)43% (Feb 24, 9:53 AM)29.63 "Hg (Feb 24, 10:03 PM)
Average8 °F65%30.18 "Hg
* Reported Feb 12 4:53 PM — Feb 27 4:53 PM, Lansing, Weather by CustomWeather, © 2015

Note: Actual official high and low records may vary slightly from our data, if they occured in-between our weather recording intervals... More about our weather records

Advertising

Lansing weather history for previous 24 hours

 ConditionsComfort  
Time TempWeatherWind HumidityBarometerVisibility
4:53 PM
Fri, Feb 27
17 °FSunny.9 mph49%30.61 "Hg10 mi
3:53 PM18 °FScattered clouds.13 mph47%30.60 "Hg10 mi
2:53 PM17 °FSunny.18 mph49%30.60 "Hg10 mi
1:53 PM15 °FSunny.9 mph46%30.60 "Hg10 mi
12:53 PM13 °FSunny.9 mph49%30.61 "Hg10 mi
11:53 AM13 °FOvercast.7 mph46%30.61 "Hg10 mi
10:53 AM10 °FSunny.No wind45%30.59 "Hg10 mi
9:53 AM6 °FSunny.No wind60%30.58 "Hg10 mi
8:53 AM0 °FSunny.6 mph71%30.57 "Hg7 mi
7:53 AM-8 °FSunny.No wind78%30.55 "Hg8 mi
6:53 AM-7 °FClear.3 mph79%30.53 "Hg9 mi
5:53 AMN/AClear.5 mphN/A30.52 "Hg10 mi
4:53 AM-9 °FClear.No wind78%30.49 "Hg10 mi
3:53 AM-5 °FClear.No wind72%30.46 "Hg10 mi
2:53 AM-3 °FClear.3 mph65%30.46 "Hg10 mi
1:53 AM-1 °FClear.7 mph62%30.44 "Hg10 mi
12:53 AM1 °FClear.7 mph56%30.43 "Hg10 mi
11:53 PM
Thu, Feb 26
2 °FClear.8 mphN/A30.42 "Hg10 mi
10:53 PM2 °FClear.9 mph65%30.40 "Hg10 mi
9:53 PM1 °FClear.3 mph75%30.39 "Hg10 mi
8:53 PM4 °FClear.No wind66%30.36 "Hg10 mi
7:53 PM6 °FClear.5 mph60%30.34 "Hg10 mi
6:53 PM9 °FClear.No wind50%30.32 "Hg10 mi
Weather by CustomWeather, © 2015

See weather overviewHow to use our weather pages